Location: Peach Mountain Observatory
(42.3967°N, 83.9367°W)
Time: 10:32:47
(UTC-04:00)

deb Explorer IX - Pass Details

Date: 24 January 2020
Orbit: 547 x 1100 km, 38.8° (Epoch: 06 April)

Event Time Altitude Azimuth Distance (km) Brightness Sun altitude
Rises 21:30:28 0° 217° (SW) 3,683 ? -42.5°
Enters shadow 21:31:53 - 213° (SSW) 3,241 ? -42.7°
Reaches altitude 10° 21:33:22 10° 207° (SSW) 2,805 - -43.0°
Maximum altitude 21:39:14 30° 149° (SSE) 1,814 - -44.0°
Drops below altitude 10° 21:45:24 10° 92° (E) 2,953 - -45.1°
Sets 21:48:31 0° 82° (E) 3,907 - -45.7°
